Ithaca, NY

1:14 AM EDT on September 01, 2016 (GMT -0400)
Tompkins County

Weather History for KITH - November, 2014

Change the Weather History Date:

Friday, November 7, 2014

  Actual Average Record
Temperature  
Mean Temperature 36 °F -  
Max Temperature 39 °F 48 °F 77 °F (1938)
Min Temperature 32 °F 33 °F 14 °F (1951)
Degree Days  
Heating Degree Days 30    
Moisture  
Dew Point 33 °F    
Average Humidity 92    
Maximum Humidity 100    
Minimum Humidity 75    
Precipitation  
Precipitation 0.40 in - - ()
Sea Level Pressure  
Sea Level Pressure 29.83 in    
Wind  
Wind Speed 9 mph (NNW)    
Max Wind Speed 20 mph    
Max Gust Speed 28 mph    
Visibility 6 miles    
Events Fog , Rain , Snow    
Averages and records for this station are not official NWS values.
T = Trace of Precipitation, MM = Missing Value Source: NWS Daily Summary

Daily Weather History Graph

Daily Weather History Graph

Search for Another Location

Airport or City:

Trip Planner

Search our weather history database for the weather conditions in past years. The results will help you decide how hot, cold, wet, or windy it might be!

Date:

Astronomy

Nov. 07, 2014 Rise Set
Actual Time 6:46 AM EST 4:51 PM EST
Civil Twilight 6:17 AM EST 5:21 PM EST
Nautical Twilight 5:43 AM EST 5:54 PM EST
Astronomical Twilight 5:10 AM EST 6:27 PM EST
Moon 5:42 PM EST (11/7) 7:20 AM EST (11/7)
Length of Visible Light 11h 04m
Length of Day
10h 04m
Full, 99% of the Moon is Illuminated
Nov 7
Full
Nov 14
Last Quarter
Nov 22
New
Nov 29
First Quarter
Dec 6
Full

Hourly Weather History & Observations

Time (EST) Temp. Windchill Dew Point Humidity Pressure Visibility Wind Dir Wind Speed Gust Speed Precip Events Conditions
12:56 AM 39.9 °F 37.8 °F 37.9 °F 93% 29.72 in 10.0 mi NNW 3.5 mph - N/A   Overcast
1:56 AM 39.9 °F 35.1 °F 37.9 °F 93% 29.73 in 10.0 mi NNW 6.9 mph - N/A   Overcast
2:56 AM 39.9 °F 34.5 °F 37.9 °F 93% 29.73 in 9.0 mi NNW 8.1 mph - N/A   Overcast
3:41 AM 39.2 °F 35.9 °F 37.4 °F 93% 29.69 in 10.0 mi North 4.6 mph - N/A   Overcast
3:47 AM 39.2 °F 35.9 °F 37.4 °F 93% 29.69 in 10.0 mi North 4.6 mph - N/A   Overcast
3:56 AM 39.9 °F 35.1 °F 37.9 °F 93% 29.71 in 10.0 mi North 6.9 mph - N/A   Overcast
4:03 AM 39.2 °F 35.0 °F 37.4 °F 93% 29.69 in 10.0 mi North 5.8 mph - N/A   Overcast
4:36 AM 39.2 °F 35.0 °F 37.4 °F 93% 29.69 in 10.0 mi NE 5.8 mph - N/A   Overcast
4:56 AM 38.8 °F 36.5 °F 36.9 °F 93% 29.72 in 10.0 mi North 3.5 mph - 0.00 in Rain Light Rain
5:56 AM 38.8 °F 34.6 °F 36.9 °F 93% 29.73 in 10.0 mi NNE 5.8 mph - 0.00 in   Overcast
6:27 AM 37.4 °F 32.8 °F 35.6 °F 93% 29.70 in 5.0 mi North 5.8 mph - 0.00 in Rain Light Rain
6:56 AM 37.9 °F 35.5 °F 36.0 °F 93% 29.73 in 5.0 mi North 3.5 mph - 0.00 in Rain Light Rain
7:56 AM 37.9 °F 34.4 °F 36.0 °F 93% 29.75 in 5.0 mi North 4.6 mph - 0.03 in Rain Light Rain
8:56 AM 34.9 °F 26.6 °F 32.9 °F 92% 29.77 in 1.5 mi NNW 11.5 mph - 0.10 in Snow Light Snow
8:59 AM 33.8 °F 26.4 °F 33.8 °F 100% 29.74 in 1.0 mi NW 9.2 mph - 0.01 in Snow Light Snow
9:56 AM 34.0 °F 25.0 °F 32.9 °F 96% 29.78 in 1.0 mi NW 12.7 mph - 0.09 in Snow Light Snow
10:56 AM 32.9 °F 23.7 °F 32.9 °F 100% 29.80 in 0.8 mi NNW 12.7 mph - 0.06 in Snow Light Snow
11:13 AM 33.8 °F 25.3 °F 33.8 °F 100% 29.78 in 0.5 mi NNW 11.5 mph - 0.02 in Fog , Snow Snow
11:37 AM 33.8 °F 25.3 °F 33.8 °F 100% 29.78 in 2.0 mi NNW 11.5 mph - 0.05 in Snow Light Snow
11:56 AM 34.0 °F 25.5 °F 34.0 °F 100% 29.82 in 3.0 mi NNW 11.5 mph - 0.06 in Snow Light Snow
12:56 PM 36.0 °F 26.0 °F 34.0 °F 93% 29.83 in 10.0 mi NNW 17.3 mph - 0.01 in   Overcast
1:56 PM 34.9 °F 25.3 °F 32.9 °F 92% 29.85 in 4.0 mi North 15.0 mph 20.7 mph 0.00 in Snow Light Snow
2:03 PM 35.6 °F 26.2 °F 33.8 °F 93% 29.82 in 5.0 mi NNW 15.0 mph 19.6 mph 0.00 in Snow Light Snow
2:11 PM 33.8 °F 24.8 °F 33.8 °F 100% 29.83 in 1.0 mi NNW 12.7 mph 23.0 mph 0.01 in Snow Light Snow
2:56 PM 34.0 °F 24.6 °F 32.9 °F 96% 29.87 in 4.0 mi NNW 13.8 mph - 0.02 in Snow Light Snow
3:56 PM 34.0 °F 22.7 °F 32.0 °F 92% 29.91 in 1.5 mi NNW 19.6 mph 27.6 mph 0.00 in Snow Light Snow
4:03 PM 33.8 °F 23.5 °F 32.0 °F 93% 29.88 in 0.5 mi NNW 16.1 mph 27.6 mph 0.00 in Snow Snow
4:21 PM 33.8 °F 23.9 °F 32.0 °F 93% 29.89 in 2.0 mi NW 15.0 mph 24.2 mph 0.01 in Snow Light Snow
4:40 PM 33.8 °F 25.3 °F 32.0 °F 93% 29.89 in 10.0 mi NNW 11.5 mph - 0.01 in Snow Light Snow
4:56 PM 32.9 °F 23.7 °F 31.1 °F 93% 29.93 in 5.0 mi NNW 12.7 mph 20.7 mph 0.01 in Snow Light Snow
5:56 PM 32.9 °F 22.8 °F 31.1 °F 93% 29.96 in 4.0 mi NNW 15.0 mph 24.2 mph 0.02 in Snow Light Snow
6:03 PM 33.8 °F 22.8 °F 30.2 °F 87% 29.93 in 9.0 mi NW 18.4 mph 23.0 mph 0.00 in Snow Light Snow
6:56 PM 32.9 °F 22.4 °F 29.1 °F 86% 29.97 in 5.0 mi NW 16.1 mph - 0.00 in Snow Light Snow
7:56 PM 32.9 °F 23.7 °F 28.0 °F 82% 29.98 in 5.0 mi NW 12.7 mph - 0.00 in Snow Light Snow
8:56 PM 32.9 °F 26.7 °F 28.0 °F 82% 29.99 in 10.0 mi NW 6.9 mph - 0.00 in   Overcast
9:56 PM 32.9 °F 26.7 °F 28.0 °F 82% 29.99 in 10.0 mi NW 6.9 mph - N/A   Overcast
10:56 PM 32.9 °F 23.7 °F 26.1 °F 76% 29.99 in 10.0 mi WNW 12.7 mph - N/A   Overcast
11:09 PM 33.8 °F 24.8 °F 26.6 °F 75% 29.95 in 10.0 mi WNW 12.7 mph - N/A   Overcast
11:56 PM 32.9 °F 24.7 °F 26.1 °F 76% 30.00 in 10.0 mi WNW 10.4 mph - N/A   Overcast